User: anonymous   Login
Location: Unspecified
(0.0000°N, 0.0000°E)
Time: 01:43:05
(UTC+00:00)
Language:

USA-164 - Orbit

View from above orbital plane
View from above orbital plane
View from above satellite
View from above satellite

Ground track
Ground track

The orbit data is extracted from the following two-line orbital elements,

1 27168U 02001A   17098.50392651 0.00000000  00000-0  00000-0 0    06
2 27168   7.5258  37.2891 0006000 277.0819  82.9181  1.00270000    02
Epoch (UTC): 08 April 2017 12:05:39
Eccentricity: 0.0006000
inclination: 7.5258°
perigee height: 35761 km
apogee height: 35812 km
right ascension of ascending node: 37.2891°
argument of perigee: 277.0819°
revolutions per day: 1.00270000
mean anomaly at epoch: 82.9181°
orbit number at epoch: 0

The dashed part of the orbit path shows where the satellite is in the earth's shadow,  

DLR